#�ϑ�����,���ϕ���,���ϕ���,�ő啗��,�ő啗����������,�ő�u�ԕ���,�ő�u�ԕ�����������
#(�N����),(m/s)   ,(16����),(m/s)   ,(16����)        ,(m/s)       ,(16����)            
2017/1/11 0:01,1.7,14,1.8,15,2.5,15
2017/1/11 0:02,1.7,14,1.7,14,3.1,16
2017/1/11 0:03,1.8,15,1.8,14,3.5,15
2017/1/11 0:04,1.9,15,1.9,14,3.3,16
2017/1/11 0:05,1.8,15,1.9,14,2.6,1
2017/1/11 0:06,1.9,16,1.9,14,3.3,16
2017/1/11 0:07,2,16,2,16,3.1,1
2017/1/11 0:08,1.9,16,2,16,3.5,16
2017/1/11 0:09,1.9,16,1.9,16,3.6,16
2017/1/11 0:10,2,16,2,16,5.4,16
2017/1/11 0:11,2.3,16,2.3,16,6.2,16
2017/1/11 0:12,2.4,16,2.4,16,6,15
2017/1/11 0:13,2.4,16,2.4,16,3.8,14
2017/1/11 0:14,2.4,16,2.4,16,3.3,15
2017/1/11 0:15,2.5,16,2.5,16,2.1,15
2017/1/11 0:16,2.5,16,2.5,16,3.2,16
2017/1/11 0:17,2.6,16,2.6,16,5.7,16
2017/1/11 0:18,2.8,16,2.8,16,5.2,15
2017/1/11 0:19,2.8,16,2.8,16,3.9,15
2017/1/11 0:20,2.8,15,2.8,16,4.4,15
2017/1/11 0:21,2.7,16,2.8,16,6.5,16
2017/1/11 0:22,2.8,16,2.8,16,5.8,16
2017/1/11 0:23,2.9,16,2.9,16,4.8,15
2017/1/11 0:24,3,16,3,16,4.8,15
2017/1/11 0:25,3.3,16,3.3,16,7.6,15
2017/1/11 0:26,3.4,16,3.4,16,6.7,15
2017/1/11 0:27,3.6,16,3.6,16,8.3,16
2017/1/11 0:28,3.5,15,3.6,16,6.1,15
2017/1/11 0:29,3.4,15,3.5,16,4.1,16
2017/1/11 0:30,3.3,15,3.4,16,4.4,15
2017/1/11 0:31,3.3,15,3.3,16,5.2,15
2017/1/11 0:32,3.1,15,3.3,16,3.8,16
2017/1/11 0:33,2.9,15,3,16,4.9,15
2017/1/11 0:34,3,15,3,16,5.5,15
2017/1/11 0:35,2.9,16,2.9,16,4.8,15
2017/1/11 0:36,2.9,16,3,16,6.2,16
2017/1/11 0:37,2.8,16,2.9,16,6.1,16
2017/1/11 0:38,3.1,16,3.1,15,7.7,16
2017/1/11 0:39,3.1,16,3.1,15,5.4,16
2017/1/11 0:40,3,16,3.1,15,3,16
2017/1/11 0:41,2.9,16,3,15,3,15
2017/1/11 0:42,2.9,16,2.9,16,3.3,14
2017/1/11 0:43,3,16,3,16,4.7,16
2017/1/11 0:44,2.9,16,3,16,4.8,16
2017/1/11 0:45,3,16,3,16,5.2,16
2017/1/11 0:46,2.8,16,3,16,4.7,16
2017/1/11 0:47,2.8,16,2.8,16,5.6,1
2017/1/11 0:48,2.6,16,2.8,16,5.8,16
2017/1/11 0:49,2.7,16,2.7,16,4.7,16
2017/1/11 0:50,2.8,16,2.8,16,3.1,15
2017/1/11 0:51,2.7,16,2.8,16,2.9,16
2017/1/11 0:52,2.7,16,2.7,16,3.1,15
2017/1/11 0:53,2.6,16,2.7,16,2.9,16
2017/1/11 0:54,2.6,16,2.6,16,5.2,1
2017/1/11 0:55,2.5,16,2.6,16,3.6,14
2017/1/11 0:56,2.3,16,2.5,16,3.2,1
2017/1/11 0:57,2.2,16,2.3,16,3.7,14
2017/1/11 0:58,2.2,16,2.3,16,3.7,15
2017/1/11 0:59,2,16,2.2,16,4.1,14
2017/1/11 1:00,1.9,16,2,16,3.7,1
2017/1/11 1:01,2.1,16,2.1,16,3,15
2017/1/11 1:02,2,16,2.1,16,2,15
2017/1/11 1:03,1.9,15,2,16,1.6,13
2017/1/11 1:04,1.8,15,1.9,16,4.4,16
2017/1/11 1:05,1.7,15,1.8,16,2.4,15
2017/1/11 1:06,1.6,15,1.7,16,1.4,4
2017/1/11 1:07,1.4,15,1.6,16,0.6,4
2017/1/11 1:08,1.2,16,1.4,16,1.3,6
2017/1/11 1:09,1.2,16,1.2,16,2,6
2017/1/11 1:10,1.1,16,1.2,16,1.5,6
2017/1/11 1:11,1,16,1.1,16,2.4,14
2017/1/11 1:12,1.1,15,1.1,16,2.4,15
2017/1/11 1:13,1,11,1.1,15,0.9,10
2017/1/11 1:14,0.8,9,1,15,0.4,8
2017/1/11 1:15,0.7,9,0.8,15,0.3,11
2017/1/11 1:16,0.7,9,0.7,16,0.9,2
2017/1/11 1:17,0.7,9,0.7,15,1.3,8
2017/1/11 1:18,0.7,9,0.7,16,1.1,5
2017/1/11 1:19,0.6,10,0.7,16,1,14
2017/1/11 1:20,0.6,12,0.6,16,1,14
2017/1/11 1:21,0.4,10,0.6,16,0.4,11
2017/1/11 1:22,0.4,9,0.4,15,1.3,9
2017/1/11 1:23,0.4,9,0.4,10,2,10
2017/1/11 1:24,0.5,9,0.5,9,1.9,10
2017/1/11 1:25,0.7,9,0.7,9,2.2,8
2017/1/11 1:26,0.6,9,0.7,9,1.8,8
2017/1/11 1:27,0.6,10,0.7,9,0.4,12
2017/1/11 1:28,0.6,11,0.6,9,0.4,12
2017/1/11 1:29,0.5,11,0.6,9,0.5,13
2017/1/11 1:30,0.5,11,0.5,9,0.1,14
2017/1/11 1:31,0.5,11,0.5,9,0.1,12
2017/1/11 1:32,0.4,12,0.5,9,0.4,12
2017/1/11 1:33,0.4,12,0.4,9,1.3,12
2017/1/11 1:34,0.4,12,0.4,9,1.6,9
2017/1/11 1:35,0.4,12,0.4,9,2.9,10
2017/1/11 1:36,0.5,12,0.5,10,2.5,10
2017/1/11 1:37,0.7,12,0.7,12,2.7,10
2017/1/11 1:38,0.8,11,0.8,12,2.5,8
2017/1/11 1:39,0.9,11,0.9,11,4.1,9
2017/1/11 1:40,1.1,11,1.1,11,2.9,10
2017/1/11 1:41,1.2,10,1.2,11,3.1,9
2017/1/11 1:42,1.2,10,1.3,10,1.5,9
2017/1/11 1:43,1.4,10,1.4,10,4.8,9
2017/1/11 1:44,1.5,10,1.5,10,3.5,11
2017/1/11 1:45,1.5,10,1.5,10,2.4,11
2017/1/11 1:46,1.5,10,1.5,10,2.6,12
2017/1/11 1:47,1.6,10,1.6,10,3.6,9
2017/1/11 1:48,1.7,11,1.7,10,3.1,11
2017/1/11 1:49,1.8,11,1.8,11,3,11
2017/1/11 1:50,1.7,11,1.8,11,2.4,12
2017/1/11 1:51,1.8,11,1.8,11,3.6,9
2017/1/11 1:52,1.9,11,1.9,11,4.2,11
2017/1/11 1:53,2,11,2,11,5.2,12
2017/1/11 1:54,2.1,11,2.1,11,3.1,12
2017/1/11 1:55,2.1,11,2.1,11,2,12
2017/1/11 1:56,2,11,2.1,11,1.8,12
2017/1/11 1:57,1.9,11,2,11,2.6,10
2017/1/11 1:58,1.8,11,1.9,11,2.2,11
2017/1/11 1:59,1.7,11,1.8,11,1.4,11
2017/1/11 2:00,1.7,11,1.7,11,1.5,11
2017/1/11 2:01,1.5,11,1.7,11,1.4,11
2017/1/11 2:02,1.3,11,1.5,11,0.4,14
2017/1/11 2:03,1.1,12,1.3,11,2,12
2017/1/11 2:04,1,12,1.1,11,1.9,13
2017/1/11 2:05,0.9,12,1,11,2.1,11
2017/1/11 2:06,1,12,1,11,3.7,12
2017/1/11 2:07,1,12,1,11,3.1,12
2017/1/11 2:08,1,12,1,11,2.2,13
2017/1/11 2:09,1.1,12,1.1,11,2.7,13
2017/1/11 2:10,1.1,13,1.1,11,1.3,13
2017/1/11 2:11,1.1,13,1.1,11,1.3,12
2017/1/11 2:12,1.3,13,1.3,12,2.4,13
2017/1/11 2:13,1.4,13,1.4,13,2.5,12
2017/1/11 2:14,1.4,13,1.4,13,2.4,13
2017/1/11 2:15,1.4,12,1.4,13,1.3,10
2017/1/11 2:16,1.3,12,1.4,13,2.6,10
2017/1/11 2:17,1.3,12,1.3,13,3,10
2017/1/11 2:18,1.4,12,1.4,13,2.9,10
2017/1/11 2:19,1.4,12,1.4,13,3.3,10
2017/1/11 2:20,1.6,11,1.6,11,3.1,10
2017/1/11 2:21,1.6,11,1.6,11,2.5,10
2017/1/11 2:22,1.6,11,1.6,11,2,9
2017/1/11 2:23,1.6,11,1.6,11,2.5,11
2017/1/11 2:24,1.5,10,1.6,11,2.5,10
2017/1/11 2:25,1.5,10,1.5,11,1.5,11
2017/1/11 2:26,1.5,11,1.5,11,1.8,12
2017/1/11 2:27,1.4,11,1.5,11,2,10
2017/1/11 2:28,1.3,11,1.4,11,1.9,12
2017/1/11 2:29,1.3,11,1.3,11,3,12
2017/1/11 2:30,1.2,11,1.3,11,1.9,13
2017/1/11 2:31,1.1,11,1.2,11,1.4,14
2017/1/11 2:32,1.1,11,1.1,11,1.5,10
2017/1/11 2:33,1,12,1.1,11,1.3,9
2017/1/11 2:34,0.9,12,1,10,1.5,9
2017/1/11 2:35,1,12,1,10,1.6,12
2017/1/11 2:36,0.9,12,1,11,1.3,12
2017/1/11 2:37,0.8,12,0.9,11,0.4,14
2017/1/11 2:38,0.8,12,0.8,11,1.4,11
2017/1/11 2:39,0.7,12,0.8,11,0.8,12
2017/1/11 2:40,0.6,12,0.6,11,0.8,13
2017/1/11 2:41,0.6,12,0.6,11,1,16
2017/1/11 2:42,0.5,12,0.6,11,0.1,9
2017/1/11 2:43,0.4,13,0.5,12,0.5,16
2017/1/11 2:44,0.4,13,0.4,12,0.8,16
2017/1/11 2:45,0.4,13,0.4,12,1.3,15
2017/1/11 2:46,0.4,14,0.4,12,1.9,16
2017/1/11 2:47,0.5,14,0.5,12,1.6,13
2017/1/11 2:48,0.6,14,0.6,12,1.4,13
2017/1/11 2:49,0.6,14,0.6,12,1.3,13
2017/1/11 2:50,0.6,15,0.6,12,0.3,16
2017/1/11 2:51,0.5,15,0.6,12,0.6,12
2017/1/11 2:52,0.6,14,0.6,14,1.1,12
2017/1/11 2:53,0.6,14,0.6,14,1.4,13
2017/1/11 2:54,0.8,14,0.8,14,2.7,13
2017/1/11 2:55,1,13,1,13,2.6,13
2017/1/11 2:56,1,13,1,13,2.6,12
2017/1/11 2:57,1.1,13,1.1,13,2.4,11
2017/1/11 2:58,1.1,13,1.1,13,1.9,13
2017/1/11 2:59,1.1,13,1.1,13,1.9,15
2017/1/11 3:00,1.2,13,1.2,13,1.8,15
2017/1/11 3:01,1.3,13,1.3,13,1.6,16
2017/1/11 3:02,1.3,14,1.3,13,1.8,16
2017/1/11 3:03,1.3,14,1.3,13,0.9,13
2017/1/11 3:04,1.2,14,1.3,13,0.9,13
2017/1/11 3:05,1,14,1.2,13,1.1,12
2017/1/11 3:06,0.9,14,1,13,1.1,11
2017/1/11 3:07,0.7,14,0.9,13,0.8,11
2017/1/11 3:08,0.7,14,0.7,13,2,13
2017/1/11 3:09,0.8,14,0.8,13,2.1,13
2017/1/11 3:10,0.9,13,0.9,13,2.4,12
2017/1/11 3:11,0.8,13,0.9,13,1.4,14
2017/1/11 3:12,0.8,12,0.8,14,1.9,9
2017/1/11 3:13,0.8,12,0.8,14,1.8,10
2017/1/11 3:14,0.9,12,0.9,14,2,14
2017/1/11 3:15,1,12,1,14,2.1,12
2017/1/11 3:16,1.1,12,1.1,12,2.5,13
2017/1/11 3:17,1.2,12,1.2,12,2.7,13
2017/1/11 3:18,1.2,12,1.3,12,1.5,13
2017/1/11 3:19,1.2,12,1.2,12,2.2,12
2017/1/11 3:20,1.2,12,1.2,12,1.9,14
2017/1/11 3:21,1.3,12,1.3,12,2.6,13
2017/1/11 3:22,1.4,12,1.4,12,3,12
2017/1/11 3:23,1.4,12,1.4,12,2.4,11
2017/1/11 3:24,1.6,12,1.6,12,3.2,12
2017/1/11 3:25,1.6,12,1.6,12,3.2,12
2017/1/11 3:26,1.7,12,1.7,12,2.1,13
2017/1/11 3:27,1.6,13,1.6,12,2.4,13
2017/1/11 3:28,1.6,13,1.6,12,2.7,13
2017/1/11 3:29,1.7,13,1.7,12,2.5,13
2017/1/11 3:30,1.7,13,1.7,12,2.2,13
2017/1/11 3:31,1.6,13,1.7,12,1.5,13
2017/1/11 3:32,1.4,13,1.6,12,1.5,11
2017/1/11 3:33,1.4,13,1.4,12,1.6,12
2017/1/11 3:34,1.2,13,1.4,12,1,11
2017/1/11 3:35,1.1,12,1.2,12,1,9
2017/1/11 3:36,1,12,1.1,13,0.9,9
2017/1/11 3:37,0.9,12,1,13,1,9
2017/1/11 3:38,0.8,11,0.8,13,1.3,9
2017/1/11 3:39,0.7,11,0.8,13,1.5,9
2017/1/11 3:40,0.7,11,0.7,13,1.6,12
2017/1/11 3:41,0.7,11,0.7,13,1.8,10
2017/1/11 3:42,0.7,11,0.7,13,1.6,9
2017/1/11 3:43,0.7,10,0.7,13,1.6,10
2017/1/11 3:44,0.7,10,0.7,13,1.4,15
2017/1/11 3:45,0.7,10,0.7,12,1.8,10
2017/1/11 3:46,0.8,10,0.8,12,2.2,12
2017/1/11 3:47,0.9,11,0.9,10,1.9,10
2017/1/11 3:48,1,11,1,11,1.9,12
2017/1/11 3:49,1,11,1,11,1.8,9
2017/1/11 3:50,1,11,1,11,2,9
2017/1/11 3:51,1,11,1,11,1.8,13
2017/1/11 3:52,1.1,11,1.1,11,1.8,12
2017/1/11 3:53,1,11,1.1,11,1.5,12
2017/1/11 3:54,1,11,1,11,1.1,12
2017/1/11 3:55,1,11,1,11,0.8,11
2017/1/11 3:56,0.9,11,0.9,11,1.9,11
2017/1/11 3:57,0.8,11,0.9,11,0.9,8
2017/1/11 3:58,0.8,11,0.8,11,2,12
2017/1/11 3:59,0.8,11,0.8,11,1.8,12
2017/1/11 4:00,0.8,12,0.8,11,1.5,12
2017/1/11 4:01,0.7,11,0.8,11,0.8,11
2017/1/11 4:02,0.7,11,0.7,11,1.5,13
2017/1/11 4:03,0.7,12,0.7,11,1.3,11
2017/1/11 4:04,0.6,12,0.7,11,0.4,13
2017/1/11 4:05,0.7,12,0.7,11,0.9,10
2017/1/11 4:06,0.6,12,0.7,11,1,11
2017/1/11 4:07,0.6,12,0.6,11,0.9,12
2017/1/11 4:08,0.6,12,0.6,11,0.6,12
2017/1/11 4:09,0.6,12,0.6,11,1,11
2017/1/11 4:10,0.6,12,0.6,12,1.1,13
2017/1/11 4:11,0.6,12,0.6,11,1.8,11
2017/1/11 4:12,0.6,12,0.6,11,1,15
2017/1/11 4:13,0.6,12,0.6,12,1.3,14
2017/1/11 4:14,0.6,12,0.6,12,1.1,14
2017/1/11 4:15,0.6,13,0.6,12,0.5,14
2017/1/11 4:16,0.6,13,0.6,12,0.9,12
2017/1/11 4:17,0.6,13,0.6,12,1.3,13
2017/1/11 4:18,0.6,13,0.6,12,1.4,13
2017/1/11 4:19,0.7,13,0.7,13,1.4,13
2017/1/11 4:20,0.7,13,0.7,13,1.3,12
2017/1/11 4:21,0.7,13,0.7,13,1.5,13
2017/1/11 4:22,0.8,13,0.8,13,1.5,12
2017/1/11 4:23,0.8,13,0.8,13,1,12
2017/1/11 4:24,0.8,12,0.8,13,1.5,10
2017/1/11 4:25,0.8,12,0.8,13,1.1,9
2017/1/11 4:26,0.9,12,0.9,12,1.3,10
2017/1/11 4:27,0.9,12,0.9,12,1.3,10
2017/1/11 4:28,0.9,11,0.9,12,1,10
2017/1/11 4:29,0.8,11,0.8,12,1,12
2017/1/11 4:30,0.8,11,0.8,12,1.1,12
2017/1/11 4:31,0.7,11,0.8,12,1,13
2017/1/11 4:32,0.7,11,0.7,12,1,13
2017/1/11 4:33,0.7,11,0.7,12,0.5,12
2017/1/11 4:34,0.6,11,0.6,12,0.3,11
2017/1/11 4:35,0.6,11,0.6,12,0.8,10
2017/1/11 4:36,0.6,11,0.6,12,1.3,9
2017/1/11 4:37,0.6,11,0.6,12,1.4,10
2017/1/11 4:38,0.6,11,0.6,11,1.4,10
2017/1/11 4:39,0.6,11,0.6,11,2,13
2017/1/11 4:40,0.6,11,0.6,11,1.1,15
2017/1/11 4:41,0.6,12,0.6,11,1,15
2017/1/11 4:42,0.6,12,0.6,11,0.6,12
2017/1/11 4:43,0.6,12,0.6,11,1,13
2017/1/11 4:44,0.7,12,0.7,12,1.8,11
2017/1/11 4:45,0.7,12,0.7,12,1.9,10
2017/1/11 4:46,0.7,12,0.7,12,1.8,11
2017/1/11 4:47,0.7,13,0.7,12,1.4,13
2017/1/11 4:48,0.7,13,0.7,12,1.5,12
2017/1/11 4:49,0.6,12,0.7,12,1.5,12
2017/1/11 4:50,0.7,12,0.7,12,1.6,12
2017/1/11 4:51,0.8,12,0.8,12,2.4,12
2017/1/11 4:52,0.8,12,0.8,12,1.6,12
2017/1/11 4:53,0.8,12,0.8,12,1.3,9
2017/1/11 4:54,0.9,12,0.9,12,1.6,13
2017/1/11 4:55,1,12,1,12,2.1,13
2017/1/11 4:56,1,12,1,12,1.5,12
2017/1/11 4:57,1,12,1,12,1.1,11
2017/1/11 4:58,1,12,1,12,1.1,12
2017/1/11 4:59,1,12,1,12,1.1,13
2017/1/11 5:00,1,12,1,12,1.3,13
2017/1/11 5:01,1,12,1,12,1.8,13
2017/1/11 5:02,1,12,1,12,1.6,13
2017/1/11 5:03,1,13,1,12,1.6,13
2017/1/11 5:04,1,13,1,12,1.5,13
2017/1/11 5:05,1,13,1,12,1.8,13
2017/1/11 5:06,1,13,1,12,1.3,14
2017/1/11 5:07,1,13,1,12,1.4,14
2017/1/11 5:08,1,13,1,12,1.5,15
2017/1/11 5:09,1,13,1,12,1.8,15
2017/1/11 5:10,0.9,13,0.9,12,1.5,13
2017/1/11 5:11,0.9,13,0.9,12,1.4,13
2017/1/11 5:12,0.8,13,0.9,12,0.1,2
2017/1/11 5:13,0.7,13,0.8,13,0.1,3
2017/1/11 5:14,0.6,14,0.7,13,0.3,1
2017/1/11 5:15,0.5,14,0.6,13,1.5,16
2017/1/11 5:16,0.5,14,0.5,13,1,15
2017/1/11 5:17,0.5,14,0.5,13,1.8,15
2017/1/11 5:18,0.5,14,0.5,13,1.5,13
2017/1/11 5:19,0.5,14,0.5,13,0.8,15
2017/1/11 5:20,0.5,15,0.5,13,1.3,14
2017/1/11 5:21,0.6,15,0.6,13,1.4,14
2017/1/11 5:22,0.6,15,0.6,13,1.4,15
2017/1/11 5:23,0.8,15,0.8,15,1.6,15
2017/1/11 5:24,0.8,15,0.8,15,1.3,15
2017/1/11 5:25,0.8,15,0.8,15,1.4,14
2017/1/11 5:26,0.8,14,0.8,15,1,14
2017/1/11 5:27,0.7,14,0.8,15,0.5,14
2017/1/11 5:28,0.6,14,0.7,15,0.5,12
2017/1/11 5:29,0.6,14,0.6,15,0.8,12
2017/1/11 5:30,0.6,14,0.6,15,0.8,16
2017/1/11 5:31,0.6,14,0.6,15,1.3,15
2017/1/11 5:32,0.6,14,0.6,15,1.8,16
2017/1/11 5:33,0.5,14,0.6,15,1.5,1
2017/1/11 5:34,0.6,14,0.6,15,2,1
2017/1/11 5:35,0.6,14,0.6,15,1.8,15
2017/1/11 5:36,0.6,14,0.6,14,1,12
2017/1/11 5:37,0.7,14,0.7,14,1.3,12
2017/1/11 5:38,0.8,14,0.8,14,1.4,14
2017/1/11 5:39,0.7,14,0.8,14,0.9,14
2017/1/11 5:40,0.8,14,0.8,14,1,13
2017/1/11 5:41,0.7,14,0.8,14,0.6,12
2017/1/11 5:42,0.7,14,0.7,14,0.9,13
2017/1/11 5:43,0.6,14,0.7,14,0.6,14
2017/1/11 5:44,0.5,13,0.6,14,0.8,11
2017/1/11 5:45,0.4,13,0.5,14,0.1,13
2017/1/11 5:46,0.4,13,0.4,14,0.1,11
2017/1/11 5:47,0.3,13,0.4,14,0.1,13
2017/1/11 5:48,0.2,13,0.3,14,0.3,15
2017/1/11 5:49,0.2,13,0.2,14,0.8,14
2017/1/11 5:50,0.3,13,0.3,14,0.8,14
2017/1/11 5:51,0.3,14,0.3,14,1,15
2017/1/11 5:52,0.3,14,0.3,14,1,15
2017/1/11 5:53,0.3,14,0.3,14,1.8,16
2017/1/11 5:54,0.4,14,0.4,13,2,15
2017/1/11 5:55,0.6,15,0.6,14,2,16
2017/1/11 5:56,0.6,15,0.6,14,1.3,15
2017/1/11 5:57,0.8,15,0.8,15,2.1,15
2017/1/11 5:58,0.9,15,0.9,15,2.2,15
2017/1/11 5:59,1,15,1,15,1.9,15
2017/1/11 6:00,1.1,15,1.1,15,1.3,14
2017/1/11 6:01,1.2,15,1.2,15,1.4,14
2017/1/11 6:02,1.3,15,1.3,15,1.9,14
2017/1/11 6:03,1.3,14,1.3,15,2,14
2017/1/11 6:04,1.3,14,1.3,15,1.6,14
2017/1/11 6:05,1.2,14,1.3,15,1.3,12
2017/1/11 6:06,1.2,14,1.2,15,0.9,11
2017/1/11 6:07,1.1,14,1.2,15,1.1,13
2017/1/11 6:08,1.1,13,1.1,15,1.1,13
2017/1/11 6:09,1,13,1.1,15,1.1,12
2017/1/11 6:10,1,13,1,15,1.4,12
2017/1/11 6:11,1,13,1,15,1.3,12
2017/1/11 6:12,1,13,1,15,1.5,12
2017/1/11 6:13,1,12,1,14,2,12
2017/1/11 6:14,1,12,1,14,1.9,11
2017/1/11 6:15,1.1,12,1.1,14,1.8,12
2017/1/11 6:16,1.2,12,1.2,14,1.9,12
2017/1/11 6:17,1.2,12,1.2,12,1.9,12
2017/1/11 6:18,1.3,12,1.3,12,2.2,12
2017/1/11 6:19,1.4,12,1.4,12,2.1,11
2017/1/11 6:20,1.3,12,1.4,12,2.1,10
2017/1/11 6:21,1.4,12,1.4,12,1.9,12
2017/1/11 6:22,1.4,12,1.4,12,2.2,12
2017/1/11 6:23,1.5,12,1.5,12,2.5,12
2017/1/11 6:24,1.4,12,1.4,12,2.4,11
2017/1/11 6:25,1.4,12,1.4,12,2,12
2017/1/11 6:26,1.3,12,1.4,12,1.8,9
2017/1/11 6:27,1.4,12,1.4,12,2.1,11
2017/1/11 6:28,1.3,12,1.4,12,1.6,12
2017/1/11 6:29,1.3,12,1.3,12,2.2,14
2017/1/11 6:30,1.3,12,1.3,12,1.4,10
2017/1/11 6:31,1.2,11,1.3,12,1.9,11
2017/1/11 6:32,1.2,11,1.3,12,2.5,11
2017/1/11 6:33,1.2,11,1.2,12,2.5,11
2017/1/11 6:34,1.1,12,1.2,12,1.1,13
2017/1/11 6:35,1,12,1.1,12,1.4,12
2017/1/11 6:36,1,12,1,12,1.3,12
2017/1/11 6:37,1.1,12,1.1,12,3.2,13
2017/1/11 6:38,1.2,12,1.2,12,3.7,12
2017/1/11 6:39,1.2,12,1.2,12,3.1,13
2017/1/11 6:40,1.4,12,1.4,12,3.6,12
2017/1/11 6:41,1.4,12,1.4,12,2,12
2017/1/11 6:42,1.3,12,1.4,12,1.6,11
2017/1/11 6:43,1.4,13,1.4,12,2.5,12
2017/1/11 6:44,1.4,12,1.4,12,2.7,13
2017/1/11 6:45,1.5,12,1.5,12,3.2,10
2017/1/11 6:46,1.7,12,1.7,12,2.6,11
2017/1/11 6:47,1.6,12,1.6,12,3.3,10
2017/1/11 6:48,1.5,12,1.6,12,3.3,10
2017/1/11 6:49,1.5,11,1.5,12,2.9,9
2017/1/11 6:50,1.5,11,1.5,12,3.7,9
2017/1/11 6:51,1.6,11,1.6,12,3.9,10
2017/1/11 6:52,1.8,11,1.8,11,3.8,10
2017/1/11 6:53,1.9,10,1.9,11,4.1,10
2017/1/11 6:54,2.1,10,2.1,10,4.1,10
2017/1/11 6:55,2.2,10,2.2,10,3.9,10
2017/1/11 6:56,2.2,10,2.2,10,3.8,10
2017/1/11 6:57,2.3,10,2.4,10,3.2,12
2017/1/11 6:58,2.3,10,2.3,10,2.4,13
2017/1/11 6:59,2.3,10,2.4,10,3.1,10
2017/1/11 7:00,2.3,10,2.3,10,2.7,10
2017/1/11 7:01,2.1,10,2.3,10,2.9,12
2017/1/11 7:02,1.9,10,2.1,10,1.8,12
2017/1/11 7:03,1.8,11,1.9,10,2.4,11
2017/1/11 7:04,1.7,11,1.8,10,2.1,11
2017/1/11 7:05,1.5,11,1.7,10,2,8
2017/1/11 7:06,1.5,11,1.5,10,3.7,10
2017/1/11 7:07,1.5,11,1.5,10,3.6,11
2017/1/11 7:08,1.6,10,1.6,10,3.8,10
2017/1/11 7:09,1.7,10,1.7,10,4.8,10
2017/1/11 7:10,1.8,10,1.8,11,5.1,10
2017/1/11 7:11,1.8,11,1.8,10,2.9,12
2017/1/11 7:12,1.9,11,1.9,10,2.9,10
2017/1/11 7:13,1.9,11,1.9,11,3,10
2017/1/11 7:14,2,10,2,10,3.1,10
2017/1/11 7:15,2.1,10,2.1,10,2.6,11
2017/1/11 7:16,2,11,2.1,10,2,9
2017/1/11 7:17,1.8,11,1.9,10,1.4,13
2017/1/11 7:18,1.7,11,1.8,10,2,10
2017/1/11 7:19,1.5,11,1.7,10,1.6,13
2017/1/11 7:20,1.3,11,1.5,10,2.6,9
2017/1/11 7:21,1.3,11,1.4,10,2.2,11
2017/1/11 7:22,1.3,11,1.3,10,2.7,12
2017/1/11 7:23,1.2,11,1.3,10,2.9,12
2017/1/11 7:24,1.2,11,1.2,10,2.2,10
2017/1/11 7:25,1.1,11,1.1,10,2.2,10
2017/1/11 7:26,1.1,11,1.1,11,3.3,11
2017/1/11 7:27,1.2,11,1.2,11,2.5,11
2017/1/11 7:28,1.2,11,1.2,11,2.1,10
2017/1/11 7:29,1.2,10,1.2,11,2,10
2017/1/11 7:30,1.2,11,1.2,11,3.1,12
2017/1/11 7:31,1.1,11,1.2,11,2,13
2017/1/11 7:32,1.1,10,1.2,11,1.6,10
2017/1/11 7:33,1.1,11,1.1,11,2.7,10
2017/1/11 7:34,1.2,11,1.2,11,2.2,10
2017/1/11 7:35,1.2,11,1.2,11,2.2,12
2017/1/11 7:36,1.2,11,1.2,11,2.7,13
2017/1/11 7:37,1.2,11,1.2,11,3.1,10
2017/1/11 7:38,1.3,11,1.3,11,3.6,9
2017/1/11 7:39,1.3,11,1.3,11,3.6,14
2017/1/11 7:40,1.4,11,1.4,11,3,13
2017/1/11 7:41,1.4,11,1.4,11,2.1,8
2017/1/11 7:42,1.4,11,1.4,11,2.2,13
2017/1/11 7:43,1.3,11,1.4,11,1.8,9
2017/1/11 7:44,1.3,11,1.3,11,2.1,9
2017/1/11 7:45,1.2,11,1.2,11,1.4,9
2017/1/11 7:46,1.1,11,1.2,11,2.2,12
2017/1/11 7:47,1.2,12,1.2,11,4.4,13
2017/1/11 7:48,1.2,11,1.2,11,3.5,12
2017/1/11 7:49,1.2,11,1.2,11,2.2,10
2017/1/11 7:50,1.1,11,1.2,11,2.5,10
2017/1/11 7:51,1.2,12,1.2,11,2.9,12
2017/1/11 7:52,1.2,12,1.2,11,2.5,13
2017/1/11 7:53,1.2,12,1.2,11,2.2,14
2017/1/11 7:54,1.2,12,1.2,11,1.4,11
2017/1/11 7:55,1.2,12,1.2,11,2,9
2017/1/11 7:56,1.4,12,1.4,12,3.7,13
2017/1/11 7:57,1.2,12,1.3,12,2.2,13
2017/1/11 7:58,1.2,12,1.2,12,3.1,12
2017/1/11 7:59,1.4,12,1.4,12,4.4,13
2017/1/11 8:00,1.5,12,1.5,12,3.3,13
2017/1/11 8:01,1.5,12,1.6,12,3.9,13
2017/1/11 8:02,1.6,12,1.6,12,2.6,12
2017/1/11 8:03,1.7,12,1.7,12,3.2,12
2017/1/11 8:04,1.8,12,1.8,12,3.7,13
2017/1/11 8:05,1.9,12,1.9,12,4.4,12
2017/1/11 8:06,1.8,12,1.9,12,2.2,9
2017/1/11 8:07,1.9,12,1.9,12,4.1,13
2017/1/11 8:08,1.9,12,2,12,3.1,13
2017/1/11 8:09,1.7,12,1.9,12,2,12
2017/1/11 8:10,1.8,12,1.8,12,3.7,12
2017/1/11 8:11,1.8,12,1.8,12,3.9,12
2017/1/11 8:12,1.8,11,1.9,12,3.8,13
2017/1/11 8:13,1.9,12,1.9,12,3.5,12
2017/1/11 8:14,1.9,12,1.9,12,3.7,12
2017/1/11 8:15,1.9,12,1.9,12,3.1,13
2017/1/11 8:16,2,12,2,12,3.1,9
2017/1/11 8:17,2,12,2,12,3.7,12
2017/1/11 8:18,2,12,2,12,3.5,13
2017/1/11 8:19,2.1,12,2.1,12,3.2,13
2017/1/11 8:20,2.1,12,2.1,12,3.1,13
2017/1/11 8:21,2.1,12,2.1,12,3.8,13
2017/1/11 8:22,2.1,12,2.1,12,4.1,13
2017/1/11 8:23,2.1,12,2.2,12,3.5,12
2017/1/11 8:24,2.1,12,2.1,12,3.3,14
2017/1/11 8:25,2.1,12,2.1,12,3.9,13
2017/1/11 8:26,2.2,12,2.2,12,3.7,11
2017/1/11 8:27,2.1,12,2.2,12,4.3,12
2017/1/11 8:28,2.2,12,2.2,12,3.9,12
2017/1/11 8:29,2.2,12,2.2,12,4.2,10
2017/1/11 8:30,2.2,12,2.2,12,3.8,11
2017/1/11 8:31,2.2,12,2.2,12,3.7,10
2017/1/11 8:32,2.2,12,2.2,12,5.1,12
2017/1/11 8:33,2.4,12,2.4,12,5.2,14
2017/1/11 8:34,2.5,12,2.5,12,4.7,12
2017/1/11 8:35,2.6,12,2.6,12,6.1,11
2017/1/11 8:36,2.5,12,2.6,12,4.2,10
2017/1/11 8:37,2.8,12,2.8,12,7,13
2017/1/11 8:38,3.1,12,3.1,12,8.5,12
2017/1/11 8:39,3.4,12,3.4,12,7.8,12
2017/1/11 8:40,3.4,12,3.4,12,5.4,13
2017/1/11 8:41,3.5,13,3.5,12,6.3,15
2017/1/11 8:42,3.5,13,3.5,12,4.8,13
2017/1/11 8:43,3.5,13,3.5,12,7.2,12
2017/1/11 8:44,3.7,13,3.7,13,6.9,14
2017/1/11 8:45,3.8,13,3.8,13,7.5,13
2017/1/11 8:46,4,13,4,13,4.7,12
2017/1/11 8:47,3.8,13,4,13,5.6,13
2017/1/11 8:48,3.4,13,3.8,13,3.2,10
2017/1/11 8:49,3.1,12,3.4,13,4.8,10
2017/1/11 8:50,3,12,3.1,13,4.2,9
2017/1/11 8:51,3,12,3,13,5.2,13
2017/1/11 8:52,3,12,3,13,4.2,13
2017/1/11 8:53,2.8,12,2.9,13,4.3,11
2017/1/11 8:54,2.6,11,2.8,13,4.7,13
2017/1/11 8:55,2.3,11,2.5,13,5,10
2017/1/11 8:56,2.4,11,2.4,13,6.5,9
2017/1/11 8:57,2.4,11,2.4,13,5.5,10
2017/1/11 8:58,2.6,11,2.6,13,5.4,10
2017/1/11 8:59,2.7,11,2.7,12,6,10
2017/1/11 9:00,2.9,11,2.9,12,6.9,9
2017/1/11 9:01,3,11,3,12,8.1,10
2017/1/11 9:02,3.2,11,3.2,11,7.6,9
2017/1/11 9:03,3.3,10,3.3,10,7.6,10
2017/1/11 9:04,3.6,10,3.6,10,6.9,10
2017/1/11 9:05,3.8,10,3.8,10,7.7,10
2017/1/11 9:06,3.8,10,3.8,10,8.4,9
2017/1/11 9:07,3.9,10,3.9,10,7.5,10
2017/1/11 9:08,4,10,4,10,7.9,9
2017/1/11 9:09,4.2,10,4.2,10,8.7,9
2017/1/11 9:10,4.3,10,4.3,10,8.9,9
2017/1/11 9:11,4.4,10,4.4,10,7.2,10
2017/1/11 9:12,4.5,10,4.5,10,7.5,10
2017/1/11 9:13,4.6,10,4.6,10,6.8,10
2017/1/11 9:14,4.5,10,4.6,10,6.3,10
2017/1/11 9:15,4.4,10,4.5,10,6.7,9
2017/1/11 9:16,4.5,10,4.5,10,8.5,10
2017/1/11 9:17,4.4,10,4.5,10,6.8,10
2017/1/11 9:18,4.5,10,4.5,10,7.2,9
2017/1/11 9:19,4.5,10,4.6,10,7,10
2017/1/11 9:20,4.3,10,4.4,10,6.4,9
2017/1/11 9:21,4.2,10,4.3,10,7,10
2017/1/11 9:22,4.1,10,4.3,10,6.1,12
2017/1/11 9:23,4.1,10,4.1,10,6.8,10
2017/1/11 9:24,4.1,10,4.1,10,6.4,11
2017/1/11 9:25,4.2,10,4.2,10,7.2,10
2017/1/11 9:26,4.3,10,4.3,10,8.3,9
2017/1/11 9:27,4.3,10,4.3,10,7,10
2017/1/11 9:28,4.3,10,4.3,10,7.7,10
2017/1/11 9:29,4.3,10,4.3,10,6.5,10
2017/1/11 9:30,4.4,10,4.4,10,6.8,11
2017/1/11 9:31,4.4,10,4.4,10,7.5,11
2017/1/11 9:32,4.5,10,4.5,10,8.4,9
2017/1/11 9:33,4.5,10,4.6,10,9.8,10
2017/1/11 9:34,4.6,10,4.6,10,6.9,8
2017/1/11 9:35,4.5,10,4.6,10,7.6,10
2017/1/11 9:36,4.5,10,4.6,10,9.7,10
2017/1/11 9:37,4.7,10,4.7,10,8.1,9
2017/1/11 9:38,4.8,10,4.8,10,7.1,11
2017/1/11 9:39,4.7,10,4.8,10,7.4,9
2017/1/11 9:40,4.5,10,4.6,10,5.4,8
2017/1/11 9:41,4.3,10,4.5,10,5.4,9
2017/1/11 9:42,4.3,10,4.3,10,7.2,10
2017/1/11 9:43,4.3,10,4.3,10,8.9,10
2017/1/11 9:44,4.2,10,4.3,10,7.6,9
2017/1/11 9:45,4.3,10,4.3,10,10,10
2017/1/11 9:46,4.3,10,4.4,10,9.3,10
2017/1/11 9:47,4.1,10,4.3,10,7.4,10
2017/1/11 9:48,4,10,4.1,10,7,10
2017/1/11 9:49,4.3,10,4.3,10,8.1,10
2017/1/11 9:50,4.4,10,4.4,10,8.5,10
2017/1/11 9:51,4.6,10,4.6,10,7.9,10
2017/1/11 9:52,4.6,10,4.7,10,7.9,10
2017/1/11 9:53,4.4,10,4.6,10,6.2,10
2017/1/11 9:54,4.4,10,4.5,10,7.1,11
2017/1/11 9:55,4.4,10,4.5,10,8.5,10
2017/1/11 9:56,4.3,10,4.4,10,8.9,10
2017/1/11 9:57,4.4,10,4.4,10,7.2,9
2017/1/11 9:58,4.2,10,4.4,10,6.1,9
2017/1/11 9:59,3.9,10,4.2,10,6.7,8
2017/1/11 10:00,3.9,10,4,10,8.3,10
2017/1/11 10:01,3.8,10,4,10,6.7,9
2017/1/11 10:02,3.7,10,3.8,10,4.7,9
2017/1/11 10:03,3.8,10,3.9,10,7.4,11
2017/1/11 10:04,3.9,10,3.9,10,8.7,10
2017/1/11 10:05,3.9,10,4,10,8.4,10
2017/1/11 10:06,3.8,10,3.9,10,6.5,11
2017/1/11 10:07,3.7,10,3.8,10,7,10
2017/1/11 10:08,4,10,4,10,7.5,10
2017/1/11 10:09,4,10,4.1,10,6.8,10
2017/1/11 10:10,3.9,10,4,10,7.8,10
2017/1/11 10:11,3.8,10,3.8,10,5.7,9
2017/1/11 10:12,4,10,4,10,9.1,10
2017/1/11 10:13,3.9,10,4,10,6.2,10
2017/1/11 10:14,3.8,10,3.9,10,6.4,10
2017/1/11 10:15,3.7,10,3.7,10,6.5,10
2017/1/11 10:16,3.8,10,3.8,10,7.7,11
2017/1/11 10:17,3.8,10,3.9,10,5.6,10
2017/1/11 10:18,3.6,10,3.8,10,6.4,10
2017/1/11 10:19,3.6,10,3.7,10,5.1,10
2017/1/11 10:20,3.7,10,3.7,10,7.4,10
2017/1/11 10:21,3.8,10,3.8,10,6.8,10
2017/1/11 10:22,3.9,10,3.9,10,7.2,9
2017/1/11 10:23,4,11,4,11,7.4,11
2017/1/11 10:24,4.1,10,4.1,10,7.6,11
2017/1/11 10:25,4,10,4.1,10,6.9,10
2017/1/11 10:26,4,10,4.1,10,7.9,9
2017/1/11 10:27,4.2,10,4.2,10,9.4,10
2017/1/11 10:28,4.4,10,4.4,10,7.6,10
2017/1/11 10:29,4.6,10,4.6,10,7.5,11
2017/1/11 10:30,4.6,10,4.7,10,8.1,9
2017/1/11 10:31,4.4,10,4.6,10,5.2,11
2017/1/11 10:32,4.3,10,4.4,10,6.3,9
2017/1/11 10:33,4.1,10,4.4,10,7,9
2017/1/11 10:34,3.9,10,4.1,10,6.2,12
2017/1/11 10:35,3.7,11,3.9,10,3.5,11
2017/1/11 10:36,3.5,11,3.7,10,4.2,9
2017/1/11 10:37,3.2,11,3.5,10,6.9,11
2017/1/11 10:38,3.3,10,3.3,10,8.5,10
2017/1/11 10:39,3.3,10,3.3,10,8.6,10
2017/1/11 10:40,3.5,10,3.5,10,9.9,10
2017/1/11 10:41,3.9,10,3.9,10,8.6,11
2017/1/11 10:42,4.1,10,4.1,10,9,11
2017/1/11 10:43,4.3,10,4.3,10,7.6,10
2017/1/11 10:44,4.6,10,4.6,10,8.2,9
2017/1/11 10:45,5,10,5,10,9.2,9
2017/1/11 10:46,5.4,10,5.4,10,8.1,9
2017/1/11 10:47,5.5,10,5.5,10,9.1,9
2017/1/11 10:48,5.3,10,5.5,10,7,10
2017/1/11 10:49,5.4,10,5.4,10,8.3,11
2017/1/11 10:50,5.3,10,5.5,10,8.7,9
2017/1/11 10:51,5.2,10,5.3,10,7.5,10
2017/1/11 10:52,5.1,10,5.1,10,7.6,11
2017/1/11 10:53,5.2,10,5.2,10,9.5,9
2017/1/11 10:54,5.1,10,5.2,10,8.4,11
2017/1/11 10:55,5.1,10,5.1,10,7.4,10
2017/1/11 10:56,5,10,5.1,10,7.5,9
2017/1/11 10:57,4.8,10,4.9,10,5.7,10